Regional Weather Roundup
Issued by NWS State College, PA

Home | Current Version | Previous Version | Text Only | Print | Product List | Glossary Off
Versions: 1 2 3 4 5 6 7 8 9 10 11 12 13 14 15 16 17 18 19 20 21 22 23 24 25 26 27 28 29 30 31 32 33 34 35 36 37 38 39 40 41 42 43 44 45 46 47 48 49 50

000
ASUS41 KCTP 231110
RWRCTP

REGIONAL WEATHER ROUNDUP
NATIONAL WEATHER SERVICE STATE COLLEGE PA
700 AM EDT WED JUL 23 2014

Note: "fair" indicates few or no clouds below 12,000 feet with no
significant weather and/or obstructions to visibility.

* = STATION THAT DOES NOT REPORT PRECIPITATION /E.G. RAIN...SNOW...ETC/
    THUNDER OR FOG.

PAZ002>004-007>009-013>016-020>023-029>032-231200-
WESTERN PENNSYLVANIA

CITY           SKY/WX    TMP DP  RH WIND       PRES   REMARKS
ERIE           CLOUDY    76  66  71 S13       29.90F
MEADVILLE      NOT AVBL
FRANKLIN*      CLOUDY    70  64  83 SW6       30.02F
NEW CASTLE       N/A     73  70  91 CALM      30.01S
BEAVER COUNTY  CLEAR     72  68  88 W5        30.02
BUTLER*        MOCLDY    70  66  88 S6        30.03S
PITTSBURGH INT CLOUDY    73  70  90 W6        30.02R
PITTSBURGH     MOCLDY    72  68  88 S6        30.02F FOG
INDIANA*       MOCLDY    72  68  88 SW6       30.07S
LATROBE        MOCLDY    72  72 100 SW9       30.04S
WASHINGTON CO* MOCLDY    70  68  94 SW5       30.04S
$$

PAZ004>006-010>012-017>019-024>028-033>037-041-042-045-046-049>053-231200-
CENTRAL PENNSYLVANIA

CITY           SKY/WX    TMP DP  RH WIND       PRES   REMARKS
BRADFORD       MOCLDY    69  66  90 SW7       30.02S FOG
DUBOIS         MOCLDY    71  68  90 SW8       30.03S FOG
CLEARFIELD     FOG       67  67 100 SW7       30.03S VSB<1/4
JOHNSTOWN      MOCLDY    69  66  90 SW6       30.08S
ALTOONA        PTCLDY    69  67  93 CALM      30.05R FOG
STATE COLLEGE  PTCLDY    70  68  94 SW6       30.02R
WILLIAMSPORT   MOSUNNY   71  67  87 CALM      29.97R
SELINSGROVE    SUNNY     72  69  90 CALM      30.00R FOG
FT INDIANTOWN  SUNNY     68  68 100 CALM      30.01R
CAPITAL CITY   PTSUNNY   72  69  90 CALM      30.00R
HARRISBURG     SUNNY     75  69  81 CALM      29.99R
YORK           SUNNY     71  69  93 CALM      30.00R
$$

PAZ038>040-043-044-047-048-054-055-060>062-067>071-231200-
EASTERN PENNSYLVANIA

CITY           SKY/WX    TMP DP  RH WIND       PRES   REMARKS
SCRANTON       CLOUDY    73  68  84 W3        30.00R
MOUNT POCONO   CLOUDY    68  66  93 W9        30.05R FOG
ALLENTOWN      SUNNY     70  67  90 CALM      29.99S
QUAKERTOWN*    SUNNY     68  66  94 CALM      30.01S
READING        SUNNY     73  66  78 CALM      30.00R
LANCASTER      SUNNY     68  65  90 CALM      30.00R FOG
COATESVILLE    SUNNY     72  72 100 W3        30.03R
POTTSTOWN      PTSUNNY   70  67  90 CALM      30.02R
BLUE BELL      MOSUNNY   73  70  88 SW3       30.00R
DOYLESTOWN     MOSUNNY   68  67  96 CALM      30.00R
WILLOW GROVE   NOT AVBL
NORTH PHILA    MOSUNNY   74  66  76 VRB3      30.01R
PHILADELPHIA   MOSUNNY   73  66  78 S7        30.00S
$$


USA.gov is the U.S. government's official web portal to all federal, state and local government web resources and services.